sat.trackr.live / text

‹ back to catalog

HISAKI (SPRINT-A)

NORAD 39253 · 2013-049A

PAYLOAD ACTIVE UNKNOWN

§ Identity

Operator
Country
JPN
Launch date
2013-09-14
Launch site
KSCUT
Launch vehicle
Mass (kg)
RCS (m²)
1.94

Purposes: science

External: N2YO · Heavens-Above · Gunter

§ Orbital elements

Epoch: 2026-09-19T23:43:11.337024Z

Period
106.23 min
Inclination
29.7186°
Eccentricity
0.0136428
Mean motion
13.55551165 rev/d
Perigee alt
950.5 km
Apogee alt
1,153.3 km
Semi-major
7,430.0 km
B*
4.9375e-5
RAAN
98.0292°
Arg perigee
65.3759°
Mean anomaly
296.0958°
Rev number
64,429

§ Raw data

HISAKI (SPRINT-A)1 39253U 13049A   26262.98832566  .00000099  00000+0  49375-4 0  99932 39253  29.7186  98.0292 0136428  65.3759 296.0958 13.55551165644297

JSON: /api/v1/satellites/39253 · /tle

For live sub-satellite position, see the globe view (requires WebGL).

§ Visibility from observer

Set your observer location to see the next 7 days of passes ≥ 10°. The values pass through the URL so the page stays shareable.

No JS? Fill the form by hand. The geolocation button needs JavaScript.